Temp
72 73 72 73 73 72 71 71 71 73 72 73 73 73 72 73 73 73 72 78 81 82 82 82 83 82 82 83 82 81 82 82 81 81 82 82 81 81 81 81 80 80 80
73 73 71 72 72 73 73 72 71 70 71 72 73 74 74 73 74 72 72 73 80 81 82 81 81 83 83 83 83 83 81 82 81 81 81 80 80 81 81 81 80 80 80
74 73 71 71 71 72 72 72 73 73 70 72 71 73 73 74 73 73 72 72 73 81 80 81 81 82 82 83 83 83 82 81 81 81 81 80 80 80 80 80 80 80 80
73 73 72 71 72 72 72 72 71 70 69 69 69 71 72 72 73 72 72 71 71 72 76 80 80 80 81 83 82 82 82 81 80 80 80 80 80 80 80 80 80 80 79
75 72 72 72 73 71 71 71 70 70 69 70 71 71 71 71 72 75 73 73 73 73 73 77 79 80 81 83 82 82 81 79 78 79 80 80 80 80 80 79 79 79 79
75 73 73 73 72 70 69 70 69 69 69 69 73 72 70 71 71 71 73 75 72 73 72 72 73 74 80 81 80 80 79 78 76 78 79 79 79 79 79 79 78 78 78
76 74 73 73 72 70 70 70 69 69 68 70 69 68 69 70 71 71 72 72 73 72 73 74 71 71 73 78 80 80 80 78 77 77 76 75 78 78 78 78 78 78 78
75 75 74 73 72 71 69 69 69 68 69 70 68 66 64 67 69 71 71 72 72 72 73 73 72 72 71 71 74 79 79 78 78 77 77 75 77 78 78 77 77 78 78
74 74 74 72 72 71 70 70 70 70 68 69 70 66 62 61 64 68 70 69 70 70 71 72 73 72 71 71 73 75 77 76 77 78 77 77 77 78 78 78 77 77 77
73 74 75 73 72 72 71 71 72 70 69 68 69 70 68 65 62 63 66 68 69 69 69 69 69 70 71 70 75 76 75 75 76 76 77 77 77 78 78 78 78 77 77
72 74 75 74 73 72 72 71 71 70 70 68 67 67 67 66 64 63 61 64 67 68 69 68 68 69 69 69 69 73 75 74 74 75 75 76 77 78 79 79 78 78 78
71 72 75 74 73 72 72 72 71 70 68 66 65 64 65 65 63 62 60 61 64 67 68 68 68 68 68 69 74 75 74 73 72 72 73 74 75 77 77 79 79 80 79
71 72 73 72 72 72 72 71 69 68 67 65 65 63 63 64 64 62 61 60 64 65 64 66 66 66 69 66 69 72 73 72 71 71 71 72 73 74 75 77 79 80 80
72 74 74 73 73 72 71 69 68 66 65 64 65 64 62 62 63 63 63 61 61 61 63 63 65 66 65 66 71 73 66 71 71 70 69 70 71 71 72 73 73 74 78
73 74 73 72 73 72 71 69 67 65 64 62 62 62 61 60 60 60 60 62 62 59 59 61 61 66 65 63 68 63 63 69 71 70 69 69 69 70 70 71 71 72 71
73 73 72 73 72 71 70 69 66 65 64 62 61 60 59 58 58 59 59 59 59 60 57 58 60 66 66 66 68 61 63 69 69 70 69 69 69 69 69 69 69 69 70
71 72 71 72 72 70 70 68 66 65 64 63 62 60 60 58 57 57 57 56 56 57 56 57 62 61 59 60 61 60 62 61 61 68 69 69 69 68 69 68 68 68 68
71 71 71 72 71 71 70 68 66 66 65 64 62 61 60 63 57 57 56 56 56 55 57 55 53 56 57 57 57 58 62 66 61 69 70 68 68 68 67 67 66 66 65
70 71 74 73 71 71 69 70 68 66 66 66 64 63 61 61 57 56 57 57 56 58 54 54 52 53 54 55 56 57 57 57 65 71 69 68 67 67 67 66 65 64 62
70 73 74 69 70 71 69 70 68 64 65 65 65 65 63 63 61 59 59 58 56 55 55 53 52 52 52 53 52 52 54 53 56 65 66 66 66 67 66 65 64 64 62
71 72 68 67 68 70 72 68 68 66 67 66 66 65 64 65 67 64 62 59 56 54 53 52 51 51 51 51 51 52 51 51 53 54 56 58 58 59 60 62 65 66 64
69 67 65 66 65 70 68 69 69 66 68 64 64 65 66 69 68 68 67 65 60 54 51 51 50 50 50 51 51 51 51 51 51 55 54 55 55 57 59 59 66 64 64
69 67 66 66 67 66 67 68 70 69 68 64 63 65 67 69 66 62 67 67 66 65 62 54 52 51 51 53 53 53 52 51 52 55 54 53 53 54 57 61 64 64 63
71 69 67 67 68 67 65 66 69 70 66 67 64 65 67 62 60 60 58 57 57 57 57 59 55 55 55 56 55 55 53 52 52 53 54 51 52 54 55 56 63 63 61
68 67 66 67 68 69 64 65 68 69 65 66 63 62 61 60 62 63 57 55 55 56 62 63 62 62 62 63 61 54 52 50 49 50 51 51 51 52 52 53 55 61 59
66 66 67 67 66 68 62 63 68 68 66 61 59 60 65 61 61 61 56 54 54 55 56 56 56 57 58 57 63 56 52 50 48 49 52 51 50 51 50 51 52 53 53
MSLP
1016.75 1016.89 1016.94 1016.89 1016.89 1017.08 1017.11 1017.30 1017.43 1017.31 1017.49 1017.56 1017.55 1017.65 1017.76 1017.67 1017.68 1017.59 1017.70 1017.71 1017.77 1017.99 1018.28 1018.66 1018.99 1019.49 1019.74 1019.69 1019.74 1020.05 1020.19 1020.51 1020.77 1020.97 1021.13 1021.35 1021.51 1021.82 1022.16 1022.47 1022.85 1023.02 1023.16
1016.58 1016.69 1016.75 1016.61 1016.64 1016.64 1016.89 1017.14 1017.30 1017.37 1017.53 1017.54 1017.39 1017.25 1017.35 1017.25 1017.24 1017.34 1017.39 1017.58 1017.58 1017.82 1018.06 1018.51 1018.79 1018.98 1019.25 1019.37 1019.51 1019.79 1020.10 1020.28 1020.63 1020.84 1021.04 1021.36 1021.45 1021.69 1022.01 1022.40 1022.75 1023.04 1023.21
1016.19 1016.30 1016.44 1016.49 1016.48 1016.57 1016.77 1016.78 1016.68 1016.99 1017.36 1017.30 1017.30 1017.13 1017.21 1017.08 1017.16 1017.23 1017.30 1017.43 1017.55 1017.70 1017.92 1018.25 1018.53 1018.81 1018.89 1018.98 1019.21 1019.52 1019.81 1020.20 1020.42 1020.65 1020.91 1021.17 1021.36 1021.57 1021.87 1022.20 1022.57 1022.92 1023.15
1016.16 1016.35 1016.32 1016.47 1016.46 1016.51 1016.57 1016.58 1016.72 1016.80 1017.15 1017.28 1017.26 1017.13 1017.10 1016.95 1017.05 1017.15 1017.38 1017.41 1017.57 1017.77 1017.84 1017.80 1018.08 1018.39 1018.72 1018.83 1019.01 1019.32 1019.66 1019.94 1020.10 1020.32 1020.69 1020.92 1021.12 1021.43 1021.70 1022.01 1022.33 1022.72 1023.07
1015.88 1016.19 1016.20 1016.19 1016.14 1016.17 1016.30 1016.38 1016.59 1016.83 1017.20 1017.22 1017.21 1017.07 1017.03 1017.06 1017.06 1017.25 1017.33 1017.39 1017.45 1017.62 1017.83 1017.67 1017.91 1018.14 1018.35 1018.39 1018.64 1018.96 1019.32 1019.75 1020.06 1020.16 1020.30 1020.52 1020.78 1021.09 1021.50 1021.85 1022.14 1022.48 1022.86
1015.70 1015.79 1015.98 1015.96 1015.95 1016.21 1016.23 1016.41 1016.60 1016.90 1017.23 1017.39 1017.27 1017.10 1016.99 1017.08 1017.01 1017.24 1017.18 1017.03 1017.21 1017.28 1017.52 1017.77 1017.72 1017.84 1017.89 1018.05 1018.45 1018.77 1019.00 1019.37 1019.68 1019.93 1019.98 1020.26 1020.51 1020.78 1021.08 1021.39 1021.85 1022.23 1022.59
1015.58 1015.73 1015.79 1015.96 1016.16 1016.36 1016.43 1016.67 1017.04 1017.35 1017.52 1017.47 1017.60 1017.30 1017.16 1017.00 1017.04 1017.10 1016.78 1016.85 1016.90 1017.07 1017.38 1017.58 1017.70 1017.93 1018.05 1017.86 1017.99 1018.28 1018.54 1018.74 1019.06 1019.36 1019.69 1019.98 1020.16 1020.41 1020.80 1021.13 1021.40 1021.80 1022.25
1015.52 1015.64 1015.91 1016.34 1016.58 1016.82 1016.88 1016.98 1017.11 1017.46 1017.58 1017.55 1017.79 1017.92 1017.73 1017.39 1017.12 1016.99 1016.98 1016.95 1016.88 1016.86 1017.09 1017.32 1017.57 1017.83 1018.19 1018.31 1018.13 1018.08 1018.21 1018.40 1018.65 1018.61 1018.54 1019.38 1019.75 1019.97 1020.30 1020.76 1021.13 1021.43 1021.78
1015.73 1015.81 1016.08 1016.30 1016.67 1016.91 1017.18 1017.31 1017.38 1017.51 1017.69 1017.61 1017.64 1017.96 1018.23 1018.24 1018.04 1017.63 1017.67 1017.61 1017.41 1017.51 1017.49 1017.38 1017.62 1018.03 1018.22 1018.29 1018.38 1018.39 1018.36 1018.46 1018.43 1018.52 1018.49 1018.70 1018.97 1019.34 1019.77 1020.27 1020.66 1021.04 1021.43
1015.97 1015.98 1016.14 1016.43 1016.75 1016.84 1017.23 1017.46 1017.52 1017.57 1017.66 1017.87 1017.71 1017.74 1018.02 1018.23 1018.42 1018.56 1018.48 1018.54 1018.35 1018.13 1018.15 1018.02 1018.25 1018.54 1018.66 1018.63 1018.48 1018.54 1018.62 1018.59 1018.53 1018.40 1018.20 1017.97 1017.55 1018.61 1019.06 1019.54 1020.14 1020.53 1020.91
1015.99 1016.06 1016.04 1016.45 1016.82 1016.95 1017.10 1017.36 1017.51 1017.63 1017.69 1017.92 1018.13 1018.15 1018.19 1018.22 1018.39 1018.61 1019.04 1018.96 1018.70 1018.84 1018.91 1018.80 1018.71 1019.03 1019.34 1019.32 1019.16 1019.09 1018.99 1018.78 1018.54 1018.35 1018.05 1017.76 1017.33 1017.88 1018.39 1018.85 1019.35 1019.78 1020.22
1016.03 1016.00 1016.03 1016.38 1016.53 1016.74 1016.78 1016.99 1017.22 1017.31 1017.46 1017.65 1017.88 1018.17 1018.30 1018.48 1018.70 1018.84 1019.19 1019.37 1019.22 1019.34 1019.29 1019.24 1019.32 1019.46 1019.57 1019.63 1019.46 1019.37 1019.31 1019.24 1019.06 1018.66 1018.24 1017.82 1017.60 1017.54 1017.31 1018.08 1018.67 1019.14 1019.66
1015.82 1015.88 1016.15 1016.44 1016.63 1016.55 1016.67 1016.88 1017.23 1017.53 1017.65 1017.67 1017.70 1017.94 1018.00 1018.16 1018.31 1018.70 1019.08 1019.59 1019.71 1019.95 1019.92 1019.89 1019.68 1019.60 1019.75 1019.90 1019.74 1019.57 1019.43 1019.28 1019.12 1018.94 1018.64 1018.27 1017.84 1017.61 1017.48 1017.71 1017.88 1017.98 1018.36
1015.25 1015.43 1015.73 1016.09 1016.14 1016.34 1016.61 1016.95 1017.43 1017.62 1017.70 1017.97 1018.04 1018.05 1018.23 1018.21 1018.19 1018.38 1018.76 1019.34 1020.19 1020.31 1020.23 1020.19 1020.16 1019.99 1019.85 1019.96 1019.68 1019.45 1019.57 1019.50 1019.32 1019.09 1018.91 1018.68 1018.45 1018.14 1017.95 1017.96 1017.77 1017.33 1017.37
1014.96 1015.11 1015.31 1015.46 1015.47 1015.77 1016.36 1017.23 1017.74 1017.88 1017.82 1018.08 1018.16 1018.38 1018.73 1018.86 1018.61 1018.36 1018.54 1018.80 1019.36 1020.35 1020.58 1020.46 1020.34 1020.13 1020.00 1020.12 1019.95 1019.90 1019.87 1019.80 1019.75 1019.55 1019.26 1019.07 1018.89 1018.70 1018.54 1018.37 1018.17 1017.92 1017.74
1014.69 1015.08 1015.15 1014.96 1015.12 1015.79 1016.34 1016.78 1017.24 1017.73 1018.12 1018.30 1018.35 1018.64 1018.80 1019.04 1019.41 1019.37 1019.13 1018.97 1019.36 1020.00 1020.63 1020.64 1020.64 1020.32 1020.20 1020.31 1020.24 1020.28 1020.10 1019.70 1019.66 1019.79 1019.67 1019.35 1019.19 1019.10 1018.80 1018.70 1018.56 1018.50 1018.60
1014.72 1014.96 1015.15 1015.59 1015.26 1015.20 1015.74 1016.16 1016.95 1017.57 1018.12 1018.23 1018.41 1018.61 1019.00 1019.33 1019.49 1019.72 1019.81 1019.68 1019.74 1019.88 1020.45 1020.68 1020.63 1020.90 1020.93 1020.78 1020.56 1020.42 1020.19 1019.97 1019.74 1019.58 1019.52 1019.54 1019.37 1019.14 1019.12 1018.99 1018.90 1018.77 1018.57
1014.49 1014.79 1014.87 1014.22 1014.51 1014.84 1015.50 1016.43 1017.23 1017.76 1018.11 1018.34 1018.27 1018.70 1019.13 1019.47 1019.68 1019.81 1020.17 1020.16 1020.02 1019.88 1020.23 1021.14 1021.40 1021.43 1021.22 1021.08 1021.23 1021.04 1020.68 1020.28 1020.10 1019.65 1019.61 1019.73 1019.57 1019.37 1019.13 1019.03 1018.99 1018.90 1018.99
1014.13 1014.06 1013.86 1013.49 1014.46 1014.48 1015.23 1015.57 1016.38 1017.14 1017.74 1018.10 1018.17 1018.52 1018.92 1019.39 1019.98 1020.10 1020.34 1020.64 1020.67 1020.72 1020.79 1021.18 1021.80 1021.94 1021.83 1021.76 1021.54 1021.27 1021.27 1020.87 1020.34 1019.87 1019.69 1019.73 1019.61 1019.35 1018.99 1018.80 1018.82 1019.14 1019.17
1013.35 1013.33 1013.45 1013.53 1014.13 1014.39 1014.51 1015.34 1016.09 1016.95 1017.67 1017.94 1018.29 1018.57 1018.80 1019.19 1019.46 1020.12 1020.31 1020.66 1020.87 1021.13 1021.30 1021.57 1021.99 1022.25 1022.25 1022.01 1022.05 1022.03 1021.83 1021.51 1020.88 1020.24 1020.11 1019.91 1019.73 1019.31 1019.01 1018.69 1018.85 1019.09 1019.16
1012.70 1012.98 1013.49 1013.46 1013.84 1013.95 1014.28 1014.97 1015.71 1016.49 1017.24 1017.79 1018.16 1018.25 1018.69 1019.04 1019.36 1019.82 1020.19 1020.60 1020.98 1021.25 1021.61 1021.74 1022.03 1022.32 1022.35 1022.21 1022.17 1022.17 1022.15 1021.96 1021.34 1021.03 1020.69 1020.23 1019.83 1019.54 1019.13 1018.99 1018.86 1018.94 1019.05
1012.52 1012.92 1013.18 1013.44 1013.61 1014.24 1014.58 1014.88 1015.39 1016.25 1016.85 1017.52 1018.11 1018.21 1018.45 1019.01 1019.49 1020.02 1020.14 1020.28 1020.52 1021.16 1021.42 1021.91 1022.15 1022.29 1022.30 1022.18 1022.13 1022.03 1022.11 1022.18 1021.91 1021.05 1020.84 1020.45 1020.03 1019.66 1019.24 1019.01 1018.91 1018.88 1018.94
1012.05 1012.55 1012.98 1013.18 1013.69 1013.11 1014.12 1014.99 1015.27 1015.82 1016.44 1017.20 1017.77 1018.26 1018.56 1018.91 1019.28 1019.69 1020.32 1020.59 1020.54 1020.34 1020.61 1021.05 1021.52 1021.82 1021.97 1021.91 1021.85 1021.75 1021.78 1021.91 1021.72 1020.93 1020.98 1020.72 1020.10 1019.70 1019.26 1018.95 1018.80 1018.68 1018.67
1011.17 1011.81 1012.47 1013.32 1014.23 1014.16 1014.61 1014.65 1015.34 1015.68 1016.19 1016.92 1017.53 1017.83 1018.28 1018.94 1019.36 1019.75 1020.12 1020.47 1020.63 1020.36 1020.35 1020.46 1020.65 1020.98 1021.19 1021.02 1021.25 1021.22 1021.41 1021.40 1021.17 1020.73 1020.70 1020.87 1020.01 1019.74 1019.37 1019.20 1019.03 1018.87 1018.73
1010.74 1011.42 1012.31 1012.96 1013.17 1013.84 1014.17 1014.41 1015.35 1015.67 1016.35 1016.92 1017.31 1017.81 1018.24 1018.71 1019.13 1019.69 1020.07 1020.66 1020.75 1020.32 1019.93 1020.08 1020.21 1020.32 1020.24 1020.31 1020.44 1020.89 1021.11 1021.45 1021.42 1020.85 1020.39 1020.42 1020.05 1020.01 1019.65 1019.44 1019.36 1019.17 1019.00
1010.94 1011.39 1012.22 1012.33 1012.89 1013.73 1014.03 1014.03 1014.83 1015.63 1016.41 1017.07 1017.56 1017.90 1018.26 1018.50 1018.88 1019.41 1019.98 1020.47 1020.63 1020.46 1020.43 1020.42 1020.39 1020.20 1020.10 1020.06 1019.92 1020.20 1020.68 1021.27 1021.53 1021.08 1020.28 1020.34 1020.24 1020.29 1020.25 1019.84 1019.61 1019.31 1019.21
Wind_Speed
4 3 4 4 3 1 3 4 3 3 4 3 4 3 4 5 6 4 4 13 13 14 14 17 17 18 17 16 14 14 14 13 12 12 13 13 12 13 12 11 9 11 10
4 4 4 4 4 4 2 3 3 2 1 3 5 4 4 5 5 5 3 4 15 14 13 17 18 18 20 18 15 14 14 14 14 13 11 11 11 11 12 12 11 11 11
5 5 4 4 3 3 3 4 3 1 2 2 4 3 3 5 4 4 4 3 4 13 13 15 17 18 19 19 17 15 14 13 14 13 12 12 12 12 13 13 12 12 11
4 4 3 3 2 3 4 4 3 3 3 3 2 3 4 4 5 5 3 3 3 3 11 15 16 17 18 18 18 16 14 14 13 14 13 13 14 14 12 13 14 12 13
5 3 3 4 3 2 3 3 2 2 2 2 3 3 3 3 4 4 6 6 5 6 4 8 14 15 17 19 19 18 15 15 15 14 15 14 15 14 14 12 13 13 13
5 5 3 2 3 2 1 2 2 2 1 2 3 3 3 2 3 4 5 5 6 7 4 4 3 4 12 15 14 15 15 16 16 16 14 14 15 15 16 15 14 13 13
3 5 3 3 2 1 2 3 2 1 1 1 2 3 2 2 0 2 3 2 3 3 4 2 1 1 3 10 11 12 12 14 18 21 19 16 14 16 16 16 16 15 14
0 3 3 2 3 2 3 2 3 1 1 1 1 1 3 4 3 3 2 2 2 3 4 4 3 1 2 3 4 5 9 10 13 16 21 26 21 17 17 16 16 16 17
0 2 2 3 3 3 2 1 2 2 0 1 3 2 2 2 2 3 5 4 5 4 3 4 4 4 5 3 5 7 9 8 5 4 13 23 23 20 19 18 17 17 17
2 3 2 3 3 2 1 0 0 1 2 1 2 1 2 2 2 2 3 4 5 4 4 3 5 5 5 4 8 8 8 7 6 5 8 12 23 23 22 19 19 18 17
2 1 3 4 4 3 3 1 1 2 1 1 0 1 2 2 2 2 1 1 4 3 3 3 4 4 5 4 4 7 10 10 10 10 8 8 11 25 26 24 20 20 19
2 2 2 3 3 4 4 3 3 5 4 3 2 2 2 1 1 1 2 1 3 2 3 3 4 3 3 3 5 9 10 11 11 10 10 9 9 7 22 26 24 23 22
2 3 5 4 3 3 4 4 4 4 2 2 2 2 2 2 3 2 3 1 2 0 1 3 3 3 3 2 2 6 7 7 7 9 10 10 9 8 3 19 26 27 26
4 6 6 5 6 6 5 5 3 3 5 3 4 3 2 2 1 2 4 5 3 1 1 2 2 2 3 2 2 3 3 4 5 6 8 9 9 9 8 5 6 13 25
3 6 7 7 7 7 6 5 3 4 4 3 4 4 3 3 2 2 2 2 4 4 2 1 2 1 2 2 4 4 4 7 6 5 7 8 8 9 10 9 9 8 4
6 6 6 6 6 6 6 6 5 5 6 3 3 5 3 2 3 4 3 3 2 4 3 1 1 1 2 1 4 4 4 6 6 5 6 6 7 8 8 8 8 8 7
7 6 5 5 8 9 7 7 6 7 6 6 4 6 5 3 3 3 3 2 2 2 3 0 1 3 3 4 4 4 4 4 3 4 5 5 6 6 6 6 6 6 5
7 9 10 11 8 8 8 7 7 6 6 5 6 7 5 3 4 4 3 4 3 2 4 4 3 4 4 3 3 3 4 4 5 6 4 4 7 8 8 6 4 3 4
11 13 13 11 6 9 10 10 8 8 6 6 7 6 6 6 4 3 3 4 3 4 4 3 2 1 2 2 3 3 3 4 3 9 7 8 10 8 9 8 7 3 4
15 15 12 7 5 9 10 10 8 7 6 5 4 6 5 6 7 6 4 4 4 3 3 3 3 1 1 1 2 2 4 2 3 3 5 4 7 8 9 9 2 4 4
14 13 7 7 6 6 7 9 8 8 8 6 6 6 6 7 9 7 4 3 4 3 2 2 2 1 2 2 1 1 1 3 3 1 3 3 3 4 4 7 3 6 7
12 10 8 7 6 2 4 12 12 9 8 8 6 5 6 10 8 8 6 9 7 5 3 3 2 2 2 2 1 1 1 2 3 1 2 4 2 3 3 3 7 6 8
13 12 9 8 8 10 8 14 18 9 9 6 7 6 5 5 7 6 7 6 4 6 6 6 4 4 2 3 2 1 2 3 4 3 1 4 1 2 2 3 9 8 4
15 13 11 5 2 2 6 15 17 9 7 6 7 7 6 6 6 6 5 2 2 2 2 4 5 4 5 5 4 3 2 3 4 4 4 4 1 3 2 2 9 7 9
6 8 8 6 6 6 13 16 14 8 6 7 6 6 7 7 8 9 6 4 3 3 2 1 6 8 9 9 9 1 4 1 3 3 1 2 1 2 2 2 2 5 8
8 8 7 8 8 7 11 18 12 7 7 5 4 5 11 8 10 11 7 6 3 4 2 2 3 4 5 5 3 5 3 2 3 3 2 1 1 2 4 2 2 2 4
Wind_Direction
227 218 233 228 221 217 241 245 245 250 245 237 229 225 252 231 214 209 200 237 223 212 202 202 201 201 198 219 204 196 192 191 190 183 190 183 185 177 179 179 177 176 168
232 216 220 223 211 211 232 215 218 264 248 218 255 230 248 234 229 225 191 219 231 222 215 212 206 203 209 211 209 202 199 195 196 196 194 194 192 189 186 182 184 186 184
232 225 214 212 211 215 224 204 180 227 264 229 252 238 231 234 238 223 223 200 235 234 230 222 213 209 212 214 212 208 202 206 203 201 200 196 199 199 196 190 190 191 188
206 205 202 232 238 213 202 203 172 225 244 248 261 243 226 215 228 229 214 218 211 237 259 241 216 213 216 219 221 210 205 213 213 206 205 205 202 203 200 195 193 196 193
184 183 202 245 216 207 192 197 167 162 223 261 248 257 249 220 227 224 225 231 231 231 239 244 227 223 222 219 224 215 215 212 231 217 207 207 208 204 201 204 199 196 197
199 188 206 216 165 181 128 164 143 171 216 258 298 297 281 276 230 215 220 218 208 212 212 245 248 247 225 223 228 231 225 221 220 227 222 211 211 211 204 197 204 203 200
221 192 177 132 129 122 128 135 94 153 303 320 339 336 341 359 42 263 218 212 223 181 182 219 199 296 297 252 233 232 240 222 219 222 203 236 223 212 211 205 200 203 205
111 155 154 151 112 89 79 122 109 79 302 217 173 63 355 343 8 21 18 349 151 155 169 183 160 161 20 358 349 278 252 239 228 229 212 220 229 221 208 206 207 206 206
189 73 171 132 130 113 160 178 133 105 317 313 236 133 28 246 330 355 24 25 41 56 58 111 108 87 85 85 59 45 55 31 14 293 241 219 219 217 213 207 204 209 211
55 67 134 121 144 126 96 40 95 78 69 335 344 42 105 142 124 11 30 19 26 36 58 27 72 69 67 56 74 71 63 46 25 338 325 244 217 209 210 210 209 209 211
131 68 155 154 168 157 150 138 78 81 88 72 81 358 19 36 97 128 126 19 48 27 38 45 77 71 58 57 46 41 41 36 28 17 357 345 211 210 210 210 213 211 212
120 203 191 180 167 166 168 166 144 131 129 120 111 121 164 162 209 119 96 56 117 35 46 40 61 75 71 45 65 55 45 35 30 19 18 18 15 254 220 213 211 218 216
168 189 167 177 170 168 151 147 133 115 112 99 119 111 135 142 140 128 104 93 115 35 40 24 52 76 50 10 54 65 54 38 31 26 18 19 24 22 3 225 221 218 217
180 170 167 164 151 155 159 141 128 118 108 86 97 91 81 37 75 150 142 141 71 18 91 156 10 26 67 45 326 48 11 1 15 26 23 24 25 28 32 18 311 262 226
164 177 163 170 171 164 160 124 116 114 114 116 121 101 52 355 21 94 123 134 139 164 189 227 150 213 96 8 327 11 2 336 334 359 18 20 19 25 23 15 11 13 354
183 154 169 187 162 139 133 151 144 148 132 139 119 115 101 84 20 6 32 105 122 144 157 185 287 235 25 35 35 24 346 6 345 332 335 350 7 15 21 18 22 18 10
141 129 155 147 185 163 170 156 152 142 145 144 138 131 108 97 78 48 30 39 74 107 119 84 73 30 33 26 5 9 11 12 343 308 279 311 348 339 344 360 358 0 9
134 140 172 198 177 167 166 135 150 167 161 161 146 122 120 114 93 78 38 47 57 65 114 102 10 6 41 15 346 349 350 350 353 339 3 347 332 324 309 288 288 310 3
156 176 193 201 175 164 164 164 164 162 163 163 157 145 144 134 111 87 75 58 32 25 48 102 107 11 358 10 347 353 345 338 337 13 36 21 352 351 328 297 251 311 344
174 187 200 140 152 185 164 160 151 153 165 157 140 139 140 150 140 137 118 110 83 78 65 84 71 26 30 344 59 31 347 339 312 345 9 349 333 359 358 3 252 256 258
186 185 170 160 172 172 162 146 154 161 160 155 168 153 151 161 158 164 141 129 124 103 98 108 109 50 349 359 84 281 287 301 307 309 313 315 333 332 342 2 333 271 279
187 178 188 186 139 152 185 165 166 166 164 165 172 154 153 159 153 160 146 159 158 148 140 148 159 169 246 218 223 188 274 9 331 245 346 299 327 308 306 344 346 271 268
187 192 192 176 184 180 174 183 176 170 162 160 156 160 159 152 149 145 156 149 135 148 158 163 158 198 215 211 196 257 231 218 242 279 58 293 329 309 314 342 345 353 313
189 190 190 179 3 269 192 180 175 161 153 154 168 163 156 158 170 160 155 170 225 233 201 190 197 218 214 229 209 209 231 253 281 259 173 242 269 265 335 345 19 40 56
174 177 158 155 175 212 200 169 166 155 152 161 166 160 169 173 184 164 154 188 244 296 326 44 243 244 253 259 250 181 270 199 305 290 247 177 311 306 340 310 347 49 44
153 155 131 150 216 218 184 160 157 154 156 142 157 179 189 179 168 165 167 176 198 250 238 326 341 340 333 306 332 191 159 209 223 305 265 157 336 35 339 319 303 322 355